Holyoke, CO

10:42 AM MST on February 27, 2017 (GMT -0700)
Holyoke Municipal

Weather History for KHEQ - May, 2014

Change the Weather History Date:

Friday, May 2, 2014

  Actual Average Record
Temperature  
Mean Temperature 56 °F -  
Max Temperature 80 °F 69 °F 80 °F (2014)
Min Temperature 32 °F 39 °F 28 °F (2013)
Degree Days  
Heating Degree Days 9    
Growing Degree Days 6 (Base 50)    
Moisture  
Dew Point 31 °F    
Average Humidity 43    
Maximum Humidity 80    
Minimum Humidity 16    
Precipitation  
Precipitation 0.00 in - - ()
Sea Level Pressure  
Sea Level Pressure 29.95 in    
Wind  
Wind Speed 10 mph (NW)    
Max Wind Speed 18 mph    
Max Gust Speed 24 mph    
Visibility 10 miles    
Events      
Averages and records for this station are not official NWS values.
T = Trace of Precipitation, MM = Missing Value Source: NWS Daily Summary

Daily Weather History Graph

Daily Weather History Graph

Search for Another Location

Airport or City:

Trip Planner

Search our weather history database for the weather conditions in past years. The results will help you decide how hot, cold, wet, or windy it might be!

Date:

Astronomy

May. 02, 2014 Rise Set
Actual Time 5:46 AM MDT 7:46 PM MDT
Civil Twilight 5:17 AM MDT 8:15 PM MDT
Nautical Twilight 4:40 AM MDT 8:52 PM MDT
Astronomical Twilight 4:01 AM MDT 9:31 PM MDT
Moon 8:25 AM MDT (5/2) 11:10 PM MDT (5/2)
Length of Visible Light 14h 58m
Length of Day
13h 59m
Waxing Crescent, 13% of the Moon is Illuminated
May 2
Waxing Crescent
May 6
First Quarter
May 14
Full
May 21
Last Quarter
May 28
New

Hourly Weather History & Observations

Time (MDT) Temp. Windchill Dew Point Humidity Pressure Visibility Wind Dir Wind Speed Gust Speed Precip Events Conditions
12:15 AM 33.8 °F 26.4 °F 26.6 °F 75% 30.09 in 10.0 mi West 9.2 mph - N/A   Clear
12:35 AM 33.8 °F 27.0 °F 26.6 °F 75% 30.09 in 10.0 mi West 8.1 mph - N/A   Clear
12:55 AM 33.8 °F 26.4 °F 26.6 °F 75% 30.09 in 10.0 mi West 9.2 mph - N/A   Clear
1:15 AM 32.0 °F 25.6 °F 26.6 °F 80% 30.09 in 10.0 mi West 6.9 mph - N/A   Clear
1:35 AM 32.0 °F 24.8 °F 24.8 °F 75% 30.10 in 10.0 mi West 8.1 mph - N/A   Clear
1:55 AM 32.0 °F 25.6 °F 24.8 °F 75% 30.09 in 10.0 mi West 6.9 mph - N/A   Clear
2:15 AM 32.0 °F 25.6 °F 26.6 °F 80% 30.08 in 10.0 mi West 6.9 mph - N/A   Clear
2:35 AM 32.0 °F 24.8 °F 26.6 °F 80% 30.07 in 10.0 mi West 8.1 mph - N/A   Clear
2:55 AM 32.0 °F 24.8 °F 26.6 °F 80% 30.06 in 10.0 mi West 8.1 mph - N/A   Clear
3:15 AM 32.0 °F 25.6 °F 26.6 °F 80% 30.06 in 10.0 mi West 6.9 mph - N/A   Clear
3:35 AM 32.0 °F 24.8 °F 24.8 °F 75% 30.05 in 10.0 mi West 8.1 mph - N/A   Clear
3:55 AM 32.0 °F 25.6 °F 24.8 °F 75% 30.05 in 10.0 mi WSW 6.9 mph - N/A   Clear
4:15 AM 32.0 °F 25.6 °F 24.8 °F 75% 30.05 in 10.0 mi West 6.9 mph - N/A   Clear
4:35 AM 32.0 °F 24.2 °F 24.8 °F 75% 30.05 in 10.0 mi West 9.2 mph - N/A   Clear
4:55 AM 32.0 °F 25.6 °F 26.6 °F 80% 30.05 in 10.0 mi West 6.9 mph - N/A   Clear
5:15 AM 32.0 °F 24.8 °F 24.8 °F 75% 30.04 in 10.0 mi West 8.1 mph - N/A   Clear
5:35 AM 32.0 °F 24.8 °F 24.8 °F 75% 30.03 in 10.0 mi West 8.1 mph - N/A   Clear
5:55 AM 32.0 °F 25.6 °F 24.8 °F 75% 30.02 in 10.0 mi West 6.9 mph - N/A   Clear
6:15 AM 32.0 °F 25.6 °F 24.8 °F 75% 30.01 in 10.0 mi West 6.9 mph - N/A   Clear
6:35 AM 33.8 °F 26.4 °F 26.6 °F 75% 30.01 in 10.0 mi West 9.2 mph - N/A   Clear
6:55 AM 35.6 °F 28.6 °F 28.4 °F 75% 30.02 in 10.0 mi West 9.2 mph - N/A   Clear
7:15 AM 41.0 °F 34.7 °F 28.4 °F 61% 30.01 in 10.0 mi West 10.4 mph - N/A   Clear
7:35 AM 44.6 °F 39.2 °F 30.2 °F 57% 30.00 in 10.0 mi West 10.4 mph - N/A   Clear
7:55 AM 51.8 °F - 30.2 °F 44% 30.00 in 10.0 mi West 11.5 mph - N/A   Clear
8:15 AM 53.6 °F - 28.4 °F 38% 30.00 in 10.0 mi West 13.8 mph - N/A   Clear
8:35 AM 59.0 °F - 28.4 °F 31% 29.99 in 10.0 mi West 18.4 mph - N/A   Clear
8:55 AM 60.8 °F - 28.4 °F 29% 29.98 in 10.0 mi West 15.0 mph - N/A   Clear
9:15 AM 62.6 °F - 28.4 °F 27% 29.97 in 10.0 mi West 17.3 mph 21.9 mph N/A   Clear
9:35 AM 64.4 °F - 26.6 °F 24% 29.97 in 10.0 mi West 13.8 mph 18.4 mph N/A   Clear
9:55 AM 66.2 °F - 28.4 °F 24% 29.96 in 10.0 mi WNW 12.7 mph 18.4 mph N/A   Clear
10:15 AM 68.0 °F - 28.4 °F 23% 29.97 in 10.0 mi WNW 12.7 mph 16.1 mph N/A   Clear
10:35 AM 68.0 °F - 28.4 °F 23% 29.96 in 10.0 mi NW 10.4 mph 19.6 mph N/A   Clear
10:55 AM 69.8 °F - 28.4 °F 21% 29.96 in 10.0 mi NNW 13.8 mph 18.4 mph N/A   Clear
11:15 AM 73.4 °F - 32.0 °F 22% 29.96 in 10.0 mi NNW 13.8 mph 21.9 mph N/A   Clear
11:35 AM 73.4 °F - 32.0 °F 22% 29.95 in 10.0 mi NW 12.7 mph 24.2 mph N/A   Clear
11:55 AM 73.4 °F - 32.0 °F 22% 29.95 in 10.0 mi NNW 16.1 mph 24.2 mph N/A   Clear
12:15 PM 73.4 °F - 32.0 °F 22% 29.93 in 10.0 mi NW 15.0 mph 23.0 mph N/A   Clear
12:35 PM 75.2 °F - 32.0 °F 21% 29.93 in 10.0 mi NNW 16.1 mph 23.0 mph N/A   Clear
12:55 PM 77.0 °F - 32.0 °F 19% 29.92 in 10.0 mi NNW 17.3 mph 20.7 mph N/A   Clear
1:15 PM 78.8 °F - 33.8 °F 20% 29.91 in 10.0 mi NW 12.7 mph 19.6 mph N/A   Clear
1:35 PM 78.8 °F - 32.0 °F 18% 29.90 in 10.0 mi NNW 12.7 mph 24.2 mph N/A   Clear
1:55 PM 78.8 °F - 32.0 °F 18% 29.89 in 10.0 mi NNW 12.7 mph 19.6 mph N/A   Clear
2:15 PM 78.8 °F - 32.0 °F 18% 29.88 in 10.0 mi North 11.5 mph 19.6 mph N/A   Clear
2:35 PM 78.8 °F - 32.0 °F 18% 29.88 in 10.0 mi North 6.9 mph 12.7 mph N/A   Scattered Clouds
2:55 PM 80.6 °F - 33.8 °F 18% 29.87 in 10.0 mi NW 15.0 mph 19.6 mph N/A   Mostly Cloudy
3:15 PM 78.8 °F - 33.8 °F 20% 29.87 in 10.0 mi NNW 11.5 mph 17.3 mph N/A   Mostly Cloudy
3:35 PM 78.8 °F - 32.0 °F 18% 29.86 in 10.0 mi NNW 11.5 mph - N/A   Mostly Cloudy
3:55 PM 78.8 °F - 32.0 °F 18% 29.85 in 10.0 mi NW 8.1 mph - N/A   Mostly Cloudy
4:15 PM 78.8 °F - 32.0 °F 18% 29.85 in 10.0 mi NNW 12.7 mph - N/A   Scattered Clouds
4:35 PM 78.8 °F - 30.2 °F 17% 29.85 in 10.0 mi NNW 17.3 mph - N/A   Clear
4:55 PM 80.6 °F - 30.2 °F 16% 29.85 in 10.0 mi NNW 16.1 mph 23.0 mph N/A   Clear
5:15 PM 78.8 °F - 30.2 °F 17% 29.85 in 10.0 mi North 18.4 mph - N/A   Clear
5:35 PM 78.8 °F - 32.0 °F 18% 29.85 in 10.0 mi North 13.8 mph - N/A   Clear
5:55 PM 77.0 °F - 33.8 °F 21% 29.86 in 10.0 mi NNE 10.4 mph - N/A   Clear
6:15 PM 75.2 °F - 33.8 °F 22% 29.86 in 10.0 mi North 11.5 mph - N/A   Scattered Clouds
6:35 PM 73.4 °F - 33.8 °F 23% 29.86 in 10.0 mi NNE 9.2 mph - N/A   Scattered Clouds
6:55 PM 73.4 °F - 33.8 °F 23% 29.86 in 10.0 mi NNE 8.1 mph - N/A   Mostly Cloudy
7:15 PM 73.4 °F - 33.8 °F 23% 29.85 in 10.0 mi NNE 5.8 mph 10.4 mph N/A   Scattered Clouds
7:35 PM 71.6 °F - 33.8 °F 25% 29.85 in 10.0 mi Calm Calm - N/A   Clear
7:55 PM 68.0 °F - 33.8 °F 28% 29.85 in 10.0 mi Calm Calm - N/A   Clear
8:15 PM 66.2 °F - 33.8 °F 30% 29.86 in 10.0 mi NE 3.5 mph - N/A   Clear
8:35 PM 62.6 °F - 37.4 °F 39% 29.87 in 10.0 mi NE 6.9 mph - N/A   Scattered Clouds
8:55 PM 62.6 °F - 35.6 °F 37% 29.89 in 10.0 mi NE 8.1 mph - N/A   Clear
9:15 PM 62.6 °F - 37.4 °F 39% 29.90 in 10.0 mi ENE 5.8 mph - N/A   Scattered Clouds
9:35 PM 62.6 °F - 39.2 °F 42% 29.92 in 10.0 mi East 3.5 mph - N/A   Mostly Cloudy
9:55 PM 60.8 °F - 41.0 °F 48% 29.95 in 10.0 mi Calm Calm - N/A   Mostly Cloudy
10:15 PM 60.8 °F - 37.4 °F 42% 29.94 in 10.0 mi South 12.7 mph - N/A   Scattered Clouds
10:35 PM 60.8 °F - 39.2 °F 45% 29.92 in 10.0 mi ESE 9.2 mph - N/A   Clear
10:55 PM 53.6 °F - 41.0 °F 62% 29.93 in 10.0 mi East 4.6 mph - N/A   Clear
11:15 PM 53.6 °F - 41.0 °F 62% 29.93 in 10.0 mi ESE 8.1 mph - N/A   Clear
11:35 PM 53.6 °F - 41.0 °F 62% 29.92 in 10.0 mi East 11.5 mph - N/A   Clear
11:55 PM 50.0 °F - 39.2 °F 66% 29.94 in 10.0 mi ENE 10.4 mph - N/A   Clear